Torna al catalogo

STARLINK-35609

AttivoComunicazioniVLEO
NORAD 66100·PAYLOAD·🇺🇸 United States

Lanciato Oct 19, 2025 da Vandenberg Space Force Base

Loading…

Prossimi Passaggi (prossime 24 ore)

TLE

AggiornatoSource: CelesTrak SupGP

Epoca: Sep 14, 2026, 14:29 UTC

1 66100C 25236Q   26257.60395833  .00032976  00000+0  97486-3 0  2570
2 66100  53.1580 303.2042 0001178  72.7318 267.4571 15.34355659    15

Traccia STARLINK-35609 in tempo reale con AllMySat

Download on the App Store